User: anonymous   Login
Location: Unspecified
(0.0000°N, 0.0000°E)
Time: 06:55:27
(UTC+00:00)
Language:

SO-67 - Orbit

View from above orbital plane
View from above orbital plane
View from above satellite
View from above satellite

Ground track
Ground track

The orbit data is extracted from the following two-line orbital elements,

1 35870U 09049F   19082.77920750  .00005297  00000-0  64431-4 0  9997
2 35870  97.0658 105.6629 0002639 124.9797 289.7942 15.60981275533543
Epoch (UTC): 23 March 2019 18:42:03
Eccentricity: 0.0002639
inclination: 97.0658°
perigee height: 383 km
apogee height: 386 km
right ascension of ascending node: 105.6629°
argument of perigee: 124.9797°
revolutions per day: 15.60981275
mean anomaly at epoch: 289.7942°
orbit number at epoch: 53354

The dashed part of the orbit path shows where the satellite is in the earth's shadow,  

DLR